Location: Arbon
(43.0005°N, 0.7472°E)
Time: 10:41:46
(UTC+00:00)

Vanguard 2 Rocket - Pass Details

Date: 27 November 2020
Orbit: 554 x 3325 km, 32.9° (Epoch: 21 January)

Event Time Altitude Azimuth Distance (km) Brightness Sun altitude
Rises 08:15:01 0° 235° (SW) 7,185 11.3 9.7°
Reaches altitude 10° 08:19:58 10° 230° (SW) 6,258 11.1 10.4°
Maximum altitude 08:38:56 51° 163° (SSE) 3,564 10.7 12.9°
Drops below altitude 10° 08:53:14 10° 94° (E) 4,854 11.4 14.6°
Sets 08:56:30 0° 89° (E) 5,538 11.5 15.0°
